Location: Hastringsfeld
(50.9620°N, 10.4787°E)
Time: 11:50:01
(UTC+00:00)

Cosmos 2237 - Pass Details

Date: 26 September 2023
Orbit: 845 x 857 km, 70.8° (Epoch: 09 December)

Event Time Altitude Azimuth Distance (km) Brightness Sun altitude
Rises 01:53:23 0° 330° (NNW) 3,439 7.5 -29.4°
Reaches altitude 10° 01:55:52 10° 333° (NNW) 2,500 6.8 -29.1°
Maximum altitude 02:01:37 71° 57° (ENE) 907 4.4 -28.4°
Drops below altitude 10° 02:07:20 10° 142° (SE) 2,487 6.6 -27.7°
Sets 02:09:47 0° 145° (SE) 3,419 7.4 -27.4°
